Le nostre stazioni meteo in Italia

Pubblicità
Il mio iltempo24.it
S. Valentino Alla Muta, Italia (16008): Temperatura & dewpoint: 06.11.2019 06:00:00 - 12.11.2019 06:00:00 (CET)S. Valentino Alla Muta, Italia (16008): velocità del vento: 06.11.2019 06:00:00 - 12.11.2019 06:00:00 (CET)S. Valentino Alla Muta, Italia (16008): direzione del vento: 06.11.2019 06:00:00 - 12.11.2019 06:00:00 (CET)S. Valentino Alla Muta, Italia (16008): visibility: 06.11.2019 06:00:00 - 12.11.2019 06:00:00 (CET)
Data & Tempo tt [°C] td [°C] ff [km/h] ff [kn] dd vv [km]
12.11.2019 06:00:00 -1,0 -1,7 4 2 NNE 1,0
12.11.2019 05:00:00 -1,0 -1,7 4 2 N 1,0
12.11.2019 04:00:00 -1,4 -2,1 4 2 ENE 1,0
12.11.2019 03:00:00 -1,4 -2,1 4 2 NNO 1,0
12.11.2019 02:00:00 -1,4 -2,0 11 6 OSO 1,2
12.11.2019 01:00:00 -1,4 -2,0 15 8 SO 1,2
12.11.2019 00:00:00 -1,6 -2,2 16 9 SO 1,2
11.11.2019 23:00:00 -1,6 -2,2 13 7 SSO 1,0
11.11.2019 22:00:00 -2,0 -2,5 15 8 SSO 1,0
11.11.2019 21:00:00 -2,4 -3,0 15 8 SSO 1,0
11.11.2019 20:00:00 -2,6 -3,3 15 8 SSO 1,0
11.11.2019 19:00:00 -2,4 -2,8 15 8 SSO 1,0
11.11.2019 18:00:00 -2,2 -2,5 15 8 SSO 1,0
11.11.2019 17:00:00 -2,0 -2,4 8 4 S 1,6
11.11.2019 16:00:00 -1,0 -2,4 15 8 SSO 2,0
11.11.2019 15:00:00 0,0 -3,0 16 9 S 2,5
11.11.2019 14:00:00 0,4 -3,5 15 8 SSO 10
11.11.2019 13:00:00 0,4 -3,9 15 8 SSO 10
11.11.2019 12:00:00 1,2 -3,3 11 6 SSO 10
11.11.2019 11:00:00 -1,0 -4,5 11 6 S 10
11.11.2019 10:00:00 -1,6 -5,1 11 6 SSO 12
11.11.2019 09:00:00 -3,0 -4,9 9 5 SSO 10
11.11.2019 08:00:00 -4,2 -5,0 5 3 ESE 20
11.11.2019 07:00:00 -4,2 -4,7 0 0 N 10
11.11.2019 06:00:00 -4,2 -4,2 0 0 N 10
11.11.2019 05:00:00 -4,2 -4,2 0 0 N 10
11.11.2019 04:00:00 -4,2 -4,5 0 0 N 10
11.11.2019 03:00:00 -4,2 -4,5 0 0 N 10
11.11.2019 02:00:00 -4,4 -4,8 0 0 N 10
11.11.2019 01:00:00 -3,6 -5,1 4 2 NNE 10
11.11.2019 00:00:00 -3,4 -5,0 4 2 NNE 10
10.11.2019 23:00:00 -3,6 -5,3 5 3 NNE 10
10.11.2019 22:00:00 -2,6 -4,5 5 3 NNE 10
10.11.2019 21:00:00 -2,2 -4,4 5 3 N 10
10.11.2019 20:00:00 -2,0 -4,3 5 3 NNE 10
10.11.2019 19:00:00 -1,4 -4,7 4 2 NNE 12
10.11.2019 18:00:00 -0,8 -4,3 5 3 NNE 20
10.11.2019 17:00:00 0,0 -4,3 8 4 NNE 20
10.11.2019 16:00:00 1,6 -3,3 5 3 NNE 30
10.11.2019 15:00:00 4,4 -3,6 5 3 NNO 30
10.11.2019 14:00:00 4,4 -3,6 8 4 NNO 30
10.11.2019 13:00:00 4,2 -3,8 8 4 NNE 30
10.11.2019 12:00:00 2,6 -4,4 8 4 N 15
10.11.2019 11:00:00 1,4 -4,0 11 6 NNE 15
10.11.2019 10:00:00 -1,6 -4,0 11 6 NNE 15
10.11.2019 09:00:00 -4,0 -4,7 8 4 NE 12
10.11.2019 08:00:00 -4,6 -5,0 5 3 N 12
10.11.2019 07:00:00 -4,4 -4,8 5 3 NE 12
10.11.2019 06:00:00 -3,8 -4,2 0 0 N 10
10.11.2019 05:00:00 -3,6 -4,0 0 0 N 10
10.11.2019 04:00:00 -3,6 -4,0 4 2 N 10
10.11.2019 03:00:00 -3,6 -4,0 4 2 NNE 10
10.11.2019 02:00:00 -3,6 -4,0 5 3 NNE 10
10.11.2019 01:00:00 -3,4 -3,8 5 3 NNE 10
10.11.2019 00:00:00 -3,2 -3,7 0 0 N 10
09.11.2019 23:00:00 -2,8 -3,5 4 2 NNE 12
09.11.2019 22:00:00 -2,2 -2,7 4 2 NNE 12
09.11.2019 21:00:00 -1,6 -2,6 4 2 NE 10
09.11.2019 20:00:00 -1,0 -1,8 4 2 NE 10
09.11.2019 19:00:00 0,4 -1,8 4 2 NNO 10
09.11.2019 18:00:00 1,4 -1,7 4 2 NE 10
09.11.2019 17:00:00 2,8 -1,4 4 2 NE 10
09.11.2019 16:00:00 4,0 -2,6 9 5 NO 10
09.11.2019 15:00:00 4,6 -3,2 11 6 NNE 10
09.11.2019 14:00:00 4,8 -2,5 8 4 NNE 10
09.11.2019 13:00:00 4,0 -4,2 13 7 NNE 10
09.11.2019 12:00:00 3,0 -1,9 13 7 NE 10
09.11.2019 11:00:00 1,6 -2,3 11 6 ENE 10
09.11.2019 10:00:00 0,8 -3,5 11 6 NNE 10
09.11.2019 09:00:00 0,0 -2,4 9 5 NE 20
09.11.2019 08:00:00 0,0 -3,4 8 4 NE 15
09.11.2019 07:00:00 0,2 -2,0 9 5 NE 15
09.11.2019 06:00:00 0,0 -0,5 11 6 ENE 6
09.11.2019 05:00:00 0,4 -0,4 11 6 ENE 4,5
09.11.2019 04:00:00 0,0 -1,1 9 5 NE 4,0
09.11.2019 03:00:00 0,0 -0,5 5 3 NE 4,0
09.11.2019 02:00:00 0,0 0,0 2 1 NNE 3,5
09.11.2019 01:00:00 0,0 0,0 5 3 NE 2,5
09.11.2019 00:00:00 0,0 0,0 4 2 N 3,0
08.11.2019 23:00:00 0,0 0,0 2 1 ENE 1,5
08.11.2019 22:00:00 0,0 0,0 2 1 SSE 1,5
08.11.2019 21:00:00 0,0 0,0 4 2 SE 2,0
08.11.2019 20:00:00 0,0 0,0 2 1 NE 1,5
08.11.2019 19:00:00 0,0 0,0 5 3 S 1,5
08.11.2019 18:00:00 0,0 0,0 4 2 S 1,5
08.11.2019 17:00:00 0,0 0,0 9 5 SO 2,0
08.11.2019 16:00:00 0,0 0,0 9 5 S 1,5
08.11.2019 15:00:00 0,0 0,0 11 6 SSO 1,5
08.11.2019 14:00:00 0,0 0,0 9 5 S 2,0
08.11.2019 13:00:00 0,0 0,0 18 10 SO 2,5
08.11.2019 12:00:00 0,0 0,0 9 5 SSO 2,0
08.11.2019 11:00:00 0,0 0,0 9 5 S 2,5
08.11.2019 10:00:00 0,0 -0,3 9 5 S 3,0
08.11.2019 09:00:00 0,0 0,0 5 3 SSO 4,0
08.11.2019 08:00:00 0,0 0,0 11 6 SSO 3,0
08.11.2019 07:00:00 -0,2 -0,2 9 5 SO 3,0
08.11.2019 06:00:00 -0,2 -0,2 11 6 SSE 3,0
08.11.2019 05:00:00 -0,2 -0,2 11 6 SSO 3,0
08.11.2019 04:00:00 0,2 0,2 11 6 SE 4,0
08.11.2019 03:00:00 0,2 0,2 11 6 SE 4,0
08.11.2019 02:00:00 0,0 0,0 13 7 SSE 6
08.11.2019 01:00:00 0,0 0,0 13 7 SSE 6
08.11.2019 00:00:00 0,0 0,0 13 7 SE 6
07.11.2019 23:00:00 0,2 0,2 13 7 SE 6
07.11.2019 22:00:00 0,4 0,4 11 6 SSE 6
07.11.2019 21:00:00 0,4 0,4 8 4 S 3,0
07.11.2019 20:00:00 0,6 0,6 9 5 SSO 7
07.11.2019 19:00:00 0,8 0,8 13 7 SSO 8
07.11.2019 18:00:00 1,4 1,4 9 5 SSO 10
07.11.2019 17:00:00 1,6 1,2 11 6 SSE 10
07.11.2019 16:00:00 1,8 1,8 11 6 S 12
07.11.2019 15:00:00 2,2 0,4 13 7 S 12
07.11.2019 14:00:00 2,6 -0,2 11 6 SSE 14
07.11.2019 13:00:00 3,0 -1,0 15 8 S 20
07.11.2019 12:00:00 2,6 -1,5 13 7 S 20
07.11.2019 11:00:00 3,2 -2,1 13 7 S 20
07.11.2019 10:00:00 1,4 -2,2 9 5 S 20
07.11.2019 09:00:00 -2,0 -2,5 4 2 ESE 30
07.11.2019 08:00:00 -2,0 -2,7 4 2 NE 30
07.11.2019 07:00:00 -2,0 -2,8 2 1 ENE 20
07.11.2019 06:00:00 -1,6 -3,0 4 2 ENE 10
07.11.2019 05:00:00 0,2 -1,2 4 2 NNE 10
07.11.2019 04:00:00 0,6 -0,4 4 2 NNE 10
07.11.2019 03:00:00 1,0 -0,5 4 2 NNE 10
07.11.2019 02:00:00 1,6 0,9 2 1 N 10
07.11.2019 01:00:00 1,4 0,7 4 2 NNO 10
07.11.2019 00:00:00 1,4 1,1 8 4 NNE 10
06.11.2019 23:00:00 1,4 1,1 9 5 NNE 10
06.11.2019 22:00:00 1,4 1,1 5 3 NNE 10
06.11.2019 21:00:00 1,2 -0,3 8 4 N 10
06.11.2019 20:00:00 1,4 -0,1 9 5 N 10
06.11.2019 19:00:00 2,4 0,9 8 4 NNE 10
06.11.2019 18:00:00 3,0 -0,6 8 4 NNE 10
06.11.2019 17:00:00 3,0 -0,1 5 3 NNE 10
06.11.2019 16:00:00 3,0 -0,5 5 3 NNE 10
06.11.2019 15:00:00 3,0 -0,5 9 5 N 10
06.11.2019 14:00:00 3,4 -0,6 4 2 NE 10
06.11.2019 13:00:00 3,0 0,1 9 5 NNO 10
06.11.2019 12:00:00 2,4 0,1 4 2 NNE 10
06.11.2019 11:00:00 2,0 0,2 8 4 NNE 10
06.11.2019 10:00:00 1,0 0,3 5 3 NNE 10
06.11.2019 09:00:00 0,0 -0,7 0 0 N 16
06.11.2019 08:00:00 -0,6 -0,6 0 0 N 20
06.11.2019 07:00:00 -0,6 -0,6 0 0 N 20
06.11.2019 06:00:00 -0,2 -0,2 0 0 N 12

tt = Temperatura
td = dewpoint
ff = velocità del vento
dd = direzione del vento
vv = visibility

Stazioni seguenti

WeatherPro
AMSI
MeteoEarth